Regional Weather Roundup
Issued by NWS

Home | Current Version | Previous Version | Graphics & Text | Print | Product List | Glossary On
Versions: 1 2 3 4 5 6 7 8 9 10 11 12 13 14 15 16 17 18 19 20 21 22 23 24 25 26 27 28 29 30 31 32 33 34 35 36 37 38 39 40 41 42 43 44 45 46 47 48 49 50
000
ASUS45 KTFX 292204
RWRMT
MONTANA HOURLY WEATHER ROUNDUP
NATIONAL WEATHER SERVICE GREAT FALLS MT
304 PM MST THU JAN 29 2015

NOTE: "FAIR" INDICATES FEW OR NO CLOUDS BELOW 12000 FEET WITH NO
SIGNIFICANT WEATHER AND/OR OBSTRUCTIONS TO VISIBILITY.

* THESE STATIONS ARE NOT UNDER NWS QUALITY CONTROL. THEY DO NOT
   REPORT WEATHER SUCH AS PRECIPITATION OR FOG.

MTZ001>007-043-292300-
WEST OF THE DIVIDE
CITY           SKY/WX    TMP DP  RH WIND       PRES   REMARKS
KALISPELL      PTCLDY    30  27  89 SE3       30.35F
MISSOULA       PTCLDY    36  27  70 W3        30.36F
BUTTE          SUNNY     39  21  48 VRB3      30.29F
MULLAN PASS    PTCLDY    37  19  48 NW3       30.28F
* ANACONDA     PTCLDY    45  19  35 N/A        N/A
* ESSEX        N/A       36  25  64 W1         N/A
* LINCOLN      N/A       44  24  45 E2         N/A
* LOOKOUT PASS N/A       42  27  55 S2         N/A
* POLSON       N/A       35  29  79 S3         N/A
* RONAN APT    SUNNY     32  32 100 N/A        N/A
* SEELEY LAKE  N/A       43  24  47 SW4        N/A
* THOMP F APT  PTCLDY    38  25  60 S3         N/A
$$

MTZ008-052>055-292300-
SOUTHWEST MONTANA
CITY           SKY/WX    TMP DP  RH WIND       PRES   REMARKS
BOZEMAN        SUNNY     43  25  49 NE3       30.31F
DILLON         PTCLDY    39  21  48 S6        30.30F WCI  35
* W YELLOWSTON PTCLDY    36  20  52 S2         N/A
* THREE FORKS  SUNNY     45  34  65 N/A        N/A
* BOULDER HILL N/A       38  21  50 S14        N/A   WCI  30
* MONIDA PASS  N/A       21  21 100 VRB3G8     N/A
* RAYNOLDS PAS N/A       28  13  53 S8         N/A   WCI  20
* WHITEHALL    N/A       46  24  42 SW10G15    N/A
* WISE RIVER   N/A       34  21  59 W5         N/A   WCI  29
$$

MTZ009>010-012-014-046-048-049-054-292300-
EAST SLOPES AND CENTRAL MONTANA
CITY           SKY/WX    TMP DP  RH WIND       PRES   REMARKS
CUT BANK       PTSUNNY   45  18  34 W13       30.19F
GREAT FALLS    PTSUNNY   48  18  30 SW13      30.21F
HELENA         PTCLDY    45  27  49 NE5       30.30F
MALMSTROM AFB  PTCLDY    50  19  29 SW13      30.22S
* DEARBORN     N/A       49  16  27 S15G24     N/A
* EAST GLACIER N/A       40  10  29 W25G31     N/A   WCI  29
* MONARCH      N/A       47   8  20 SW8        N/A
* PENDROY      N/A       47  19  33 S1         N/A
* ROGERS PASS  N/A       38  16  41 SE7G18     N/A   WCI  33
* SWEET GRASS  N/A       32  32 100 S12G17     N/A   WCI  23
$$

MTZ011-013-016-021-035-040-045-047-050-051-292300-
NORTH CENTRAL MONTANA
CITY           SKY/WX    TMP DP  RH WIND       PRES   REMARKS
HAVRE          SUNNY     43  30  60 CALM      30.23F
LEWISTOWN      PTCLDY    48  21  34 NE5       30.22F
* N BAR RANCH  SUNNY     48  23  37 S13G21    30.23F
* CHESTER      N/A       38  30  73 N/A        N/A
* DENTON       N/A       50  19  29 S6         N/A
* GEYSER       N/A       49  15  26 SW2        N/A
* JUDITH GAP   N/A       44  24  45 SE16       N/A
* LOMA         N/A       45  33  63 NE6        N/A
$$

MTZ017>020-022>027-061-062-292300-
NORTHEAST MONTANA
CITY           SKY/WX    TMP DP  RH WIND       PRES   REMARKS
GLASGOW        FOG       32  30  92 E12       30.30F VSB M1/4 WCI  23
GLENDIVE       SUNNY     39  25  57 S7        30.37S WCI  34
JORDAN         SUNNY     45  27  49 S14       30.28F
SIDNEY         SUNNY     37  23  57 E5        30.40F WCI  33
WOLF POINT     SUNNY     39  28  65 SE7       30.35F WCI  34
* BEAVER HILL  N/A       39  23  53 SW7        N/A   WCI  34
* CIRCLE       N/A       44  28  53 S7         N/A
* LINDSAY DVD  N/A       40  24  53 SE8        N/A   WCI  35
* NAVAJO       N/A       32  22  67 S7         N/A   WCI  25
* SACO         N/A       31  31 100 E13        N/A   WCI  21
$$

MTZ028>042-056>058-292300-
SOUTHCENTRAL AND SOUTHEAST MONTANA
CITY           SKY/WX    TMP DP  RH WIND       PRES   REMARKS
BAKER          SUNNY     43  12  28 SW5       30.36F
BILLINGS       SUNNY     48  27  44 S9        30.27F
LIVINGSTON     SUNNY     48  19  32 SW20G26   30.25F
MILES CITY     SUNNY     45  28  51 SE9       30.33F
* LAUREL APT   SUNNY     48  25  41 S15G24     N/A
* ROUNDUP APT  SUNNY     50  21  32 SW16G22    N/A
* ALZADA       N/A       45  22  40 W2         N/A
* HYSHAM       N/A       48  19  32 SE3G8      N/A
* LAME DEER    N/A       43  21  42 SE8        N/A
* REED POINT   N/A       50  24  36 NE2G7      N/A
* ROSCOE HILL  N/A       42  16  35 E6         N/A
$$

REGIONAL REPORTS...DAKOTAS
CITY           SKY/WX    TMP DP  RH WIND       PRES   REMARKS
WILLISTON      PTCLDY    30  19  64 W5        30.40F WCI  25
DICKINSON      PTCLDY    37  19  48 CALM      30.35F
CROSBY         PTSUNNY   25  19  78 CALM      30.42F
WATFORD CITY   SUNNY     32  23  69 CALM      30.38F
BISMARCK       PTSUNNY   30  18  61 N10       30.46F WCI  21
GRAND FORKS    PTCLDY    12   3  67 N14       30.55R WCI  -4
FARGO          PTSUNNY   18   7  62 N20       30.52R WCI   2
BUFFALO SD     SUNNY     43   5  21 CALM      30.31F
RAPID CITY     SUNNY     46  12  25 VRB3      30.40F
$$

REGIONAL REPORTS...WYOMING/IDAHO/WASHINGTON
CITY           SKY/WX    TMP DP  RH WIND       PRES   REMARKS
GILLETTE       SUNNY     46  21  37 S9        30.32F
SHERIDAN       SUNNY     48  21  34 SE13      30.29F
CODY           SUNNY     43  30  60 SE12      30.29S
YELLOWSTONE LA SUNNY     19  16  88 CALM      30.36F
SALMON         PTSUNNY   27  23  85 CALM      30.39F
MULLAN PASS    PTCLDY    37  19  48 NW3       30.28S
SAND POINT     SUNNY     36  34  92 CALM      30.38F
SPOKANE        FOG       36  34  92 N3        30.36F VSB 2

$$



USA.gov is the U.S. government's official web portal to all federal, state and local government web resources and services.